,,PA_Meas_PMT16A,,PR_Meas_QMR101_102,,RH_Meas_QMH101,,SR_Meas_QMS101,,TA_Meas_QMH101,,GenWind,,GenWind,
time,status,PA,status,PR,status,RH,status,SR,status,TA,status,DirAvg,status,SpdAvg,
2011-04-15, 00:00:04,VALID,916.63,VALID,0,VALID,97.3358,VALID,0,VALID,19.8978,VALID,127,VALID,0,
2011-04-15, 00:01:04,VALID,916.66,VALID,0,VALID,97.3205,VALID,0,VALID,19.8978,VALID,128,VALID,0.133203,
2011-04-15, 00:02:04,VALID,916.688,VALID,0,VALID,97.3358,VALID,0,VALID,19.8378,VALID,128,VALID,0.214844,
2011-04-15, 00:03:04,VALID,916.708,VALID,0,VALID,97.3281,VALID,0,VALID,19.7793,VALID,128,VALID,0.173828,
2011-04-15, 00:04:04,VALID,916.7,VALID,0,VALID,97.3281,VALID,0,VALID,19.8003,VALID,128,VALID,0.114063,
2011-04-15, 00:05:04,VALID,916.709,VALID,0,VALID,97.3434,VALID,0,VALID,19.8198,VALID,128,VALID,0,
2011-04-15, 00:06:04,VALID,916.712,VALID,0,VALID,97.3434,VALID,0,VALID,19.8378,VALID,128,VALID,0.00664063,
2011-04-15, 00:07:04,VALID,916.743,VALID,0,VALID,97.3358,VALID,0,VALID,19.8588,VALID,128,VALID,0,
2011-04-15, 00:08:04,VALID,916.694,VALID,0,VALID,97.3434,VALID,0,VALID,19.8588,VALID,127,VALID,0,
2011-04-15, 00:09:04,VALID,916.679,VALID,0,VALID,97.351,VALID,0,VALID,19.8768,VALID,127,VALID,0,
2011-04-15, 00:10:04,VALID,916.63,VALID,0,VALID,97.3434,VALID,0,VALID,19.9158,VALID,127,VALID,0.294141,
2011-04-15, 00:11:04,VALID,916.653,VALID,0,VALID,97.3358,VALID,0,VALID,19.9368,VALID,128,VALID,0.309766,
2011-04-15, 00:12:04,VALID,916.634,VALID,0,VALID,97.3358,VALID,0,VALID,19.9368,VALID,128,VALID,0,
2011-04-15, 00:13:04,VALID,916.62,VALID,0,VALID,97.351,VALID,0,VALID,19.9563,VALID,128,VALID,0,
2011-04-15, 00:14:04,VALID,916.644,VALID,0,VALID,97.3434,VALID,0,VALID,19.9563,VALID,128,VALID,0,
2011-04-15, 00:15:04,VALID,916.623,VALID,0,VALID,97.3281,VALID,0,VALID,19.9353,VALID,128,VALID,0,
2011-04-15, 00:16:04,VALID,916.627,VALID,0,VALID,97.3434,VALID,0,VALID,19.8963,VALID,128,VALID,0,
2011-04-15, 00:17:04,VALID,916.589,VALID,0,VALID,97.3434,VALID,0,VALID,19.9173,VALID,128,VALID,0.0375,
2011-04-15, 00:18:04,VALID,916.59,VALID,0,VALID,97.3205,VALID,0,VALID,19.9353,VALID,127,VALID,0.0871094,
2011-04-15, 00:19:04,VALID,916.613,VALID,0,VALID,97.3358,VALID,0,VALID,19.9563,VALID,128,VALID,0.405859,
2011-04-15, 00:20:04,VALID,916.609,VALID,0,VALID,97.3663,VALID,0,VALID,19.9548,VALID,127,VALID,0.621875,
2011-04-15, 00:21:04,VALID,916.577,VALID,0,VALID,97.351,VALID,0,VALID,20.0343,VALID,128,VALID,0.520312,
2011-04-15, 00:22:04,VALID,916.588,VALID,0,VALID,97.3358,VALID,0,VALID,20.1123,VALID,128,VALID,0.218359,
2011-04-15, 00:23:04,VALID,916.577,VALID,0,VALID,97.3281,VALID,0,VALID,20.1318,VALID,127,VALID,0.177734,
2011-04-15, 00:24:04,VALID,916.56,VALID,0,VALID,97.3281,VALID,0,VALID,20.1108,VALID,128,VALID,0,
2011-04-15, 00:25:04,VALID,916.572,VALID,0,VALID,97.3358,VALID,0,VALID,20.0928,VALID,128,VALID,0.342969,
2011-04-15, 00:26:04,VALID,916.586,VALID,0,VALID,97.3358,VALID,0,VALID,20.0343,VALID,127,VALID,0.342187,
2011-04-15, 00:27:04,VALID,916.568,VALID,0,VALID,97.3129,VALID,0,VALID,19.9758,VALID,127,VALID,0.35625,
2011-04-15, 00:28:04,VALID,916.541,VALID,0,VALID,97.351,VALID,0,VALID,19.9548,VALID,128,VALID,0.369141,
2011-04-15, 00:29:04,VALID,916.548,VALID,0,VALID,97.3205,VALID,0,VALID,19.9758,VALID,128,VALID,0.220313,
2011-04-15, 00:30:04,VALID,916.545,VALID,0,VALID,97.3281,VALID,0,VALID,19.9953,VALID,127,VALID,0,
2011-04-15, 00:31:04,VALID,916.576,VALID,0,VALID,97.3281,VALID,0,VALID,19.9953,VALID,127,VALID,0,
2011-04-15, 00:32:04,VALID,916.597,VALID,0,VALID,97.3358,VALID,0,VALID,19.9563,VALID,128,VALID,0,
2011-04-15, 00:33:04,VALID,916.628,VALID,0,VALID,97.3129,VALID,0,VALID,19.9563,VALID,127,VALID,0.257813,
2011-04-15, 00:34:04,VALID,916.66,VALID,0,VALID,97.3281,VALID,0,VALID,19.9563,VALID,127,VALID,0.199219,
2011-04-15, 00:35:04,VALID,916.655,VALID,0,VALID,97.3205,VALID,0,VALID,19.9563,VALID,128,VALID,0.438281,
2011-04-15, 00:36:04,VALID,916.667,VALID,0,VALID,97.351,VALID,0,VALID,19.9173,VALID,127,VALID,0.594531,
2011-04-15, 00:37:04,VALID,916.654,VALID,0,VALID,97.3358,VALID,0,VALID,19.9368,VALID,128,VALID,0.883984,
2011-04-15, 00:38:04,VALID,916.634,VALID,0,VALID,97.3281,VALID,0,VALID,19.9158,VALID,143,VALID,0.775391,
2011-04-15, 00:39:04,VALID,916.633,VALID,0,VALID,97.3129,VALID,0,VALID,19.9758,VALID,143,VALID,0.850391,
2011-04-15, 00:40:04,VALID,916.618,VALID,0,VALID,97.351,VALID,0,VALID,19.9758,VALID,143,VALID,0.519531,
2011-04-15, 00:41:04,VALID,916.603,VALID,0,VALID,97.3205,VALID,0,VALID,19.9563,VALID,143,VALID,0.848437,
2011-04-15, 00:42:04,VALID,916.566,VALID,0,VALID,97.3281,VALID,0,VALID,19.9353,VALID,143,VALID,0.75,
2011-04-15, 00:43:04,VALID,916.545,VALID,0,VALID,97.3205,VALID,0,VALID,19.9368,VALID,143,VALID,0.774609,
2011-04-15, 00:44:04,VALID,916.527,VALID,0,VALID,97.3358,VALID,0,VALID,19.9563,VALID,143,VALID,0.885938,
2011-04-15, 00:45:04,VALID,916.512,VALID,0,VALID,97.3358,VALID,0,VALID,19.9563,VALID,143,VALID,0.916406,
2011-04-15, 00:46:04,VALID,916.509,VALID,0,VALID,97.351,VALID,0,VALID,19.9368,VALID,143,VALID,0.930859,
2011-04-15, 00:47:04,VALID,916.5,VALID,0,VALID,97.3434,VALID,0,VALID,19.9173,VALID,143,VALID,0.791016,
2011-04-15, 00:48:04,VALID,916.515,VALID,0,VALID,97.3434,VALID,0,VALID,19.8978,VALID,144,VALID,0.763672,
2011-04-15, 00:49:04,VALID,916.504,VALID,0,VALID,97.3434,VALID,0,VALID,19.8978,VALID,143,VALID,0.449219,
2011-04-15, 00:50:04,VALID,916.507,VALID,0,VALID,97.3358,VALID,0,VALID,19.8978,VALID,143,VALID,0.482031,
2011-04-15, 00:51:04,VALID,916.514,VALID,0,VALID,97.3434,VALID,0,VALID,19.8393,VALID,143,VALID,0.404687,
2011-04-15, 00:52:04,VALID,916.469,VALID,0,VALID,97.3434,VALID,0,VALID,19.8588,VALID,143,VALID,0.479297,
2011-04-15, 00:53:04,VALID,916.457,VALID,0,VALID,97.351,VALID,0,VALID,19.8573,VALID,143,VALID,0.440234,
2011-04-15, 00:54:04,VALID,916.462,VALID,0,VALID,97.351,VALID,0,VALID,19.8378,VALID,143,VALID,0.667969,
2011-04-15, 00:55:04,VALID,916.447,VALID,0,VALID,97.3434,VALID,0,VALID,19.8573,VALID,143,VALID,0.296094,
2011-04-15, 00:56:04,VALID,916.401,VALID,0,VALID,97.3358,VALID,0,VALID,19.8768,VALID,143,VALID,0.298828,
2011-04-15, 00:57:04,VALID,916.412,VALID,0,VALID,97.3434,VALID,0,VALID,19.8978,VALID,143,VALID,0.473437,
2011-04-15, 00:58:04,VALID,916.403,VALID,0,VALID,97.351,VALID,0,VALID,19.8783,VALID,143,VALID,0.569141,
2011-04-15, 00:59:04,VALID,916.395,VALID,0,VALID,97.3663,VALID,0,VALID,19.8783,VALID,144,VALID,0.746484,
2011-04-15, 01:00:04,VALID,916.408,VALID,0,VALID,97.3586,VALID,0,VALID,19.8588,VALID,144,VALID,0.669922,
2011-04-15, 01:01:04,VALID,916.423,VALID,0,VALID,97.3663,VALID,0,VALID,19.8393,VALID,144,VALID,0.658594,
2011-04-15, 01:02:04,VALID,916.429,VALID,0,VALID,97.3663,VALID,0,VALID,19.8393,VALID,145,VALID,0.577734,
2011-04-15, 01:03:04,VALID,916.401,VALID,0,VALID,97.3663,VALID,0,VALID,19.8198,VALID,145,VALID,0.376563,
2011-04-15, 01:04:04,VALID,916.408,VALID,0,VALID,97.3663,VALID,0,VALID,19.8393,VALID,145,VALID,0.557813,
2011-04-15, 01:05:04,VALID,916.405,VALID,0,VALID,97.3815,VALID,0,VALID,19.8393,VALID,145,VALID,0.0707031,
2011-04-15, 01:06:04,VALID,916.381,VALID,0,VALID,97.3586,VALID,0,VALID,19.8183,VALID,145,VALID,0.1125,
2011-04-15, 01:07:04,VALID,916.348,VALID,0,VALID,97.3663,VALID,0,VALID,19.8003,VALID,145,VALID,0.408984,
2011-04-15, 01:08:04,VALID,916.336,VALID,0,VALID,97.351,VALID,0,VALID,19.7613,VALID,145,VALID,0.333594,
2011-04-15, 01:09:04,VALID,916.276,VALID,0,VALID,97.3739,VALID,0,VALID,19.7613,VALID,145,VALID,0.258984,
2011-04-15, 01:10:04,VALID,916.237,VALID,0,VALID,97.3739,VALID,0,VALID,19.7613,VALID,145,VALID,0,
2011-04-15, 01:11:04,VALID,916.221,VALID,0,VALID,97.3739,VALID,0,VALID,19.7598,VALID,145,VALID,0,
2011-04-15, 01:12:04,VALID,916.192,VALID,0,VALID,97.3739,VALID,0,VALID,19.8003,VALID,145,VALID,0,
2011-04-15, 01:13:04,VALID,916.166,VALID,0,VALID,97.3586,VALID,0,VALID,19.8183,VALID,145,VALID,0,
2011-04-15, 01:14:04,VALID,916.151,VALID,0,VALID,97.3739,VALID,0,VALID,19.8393,VALID,145,VALID,0,
2011-04-15, 01:15:04,VALID,916.111,VALID,0,VALID,97.3739,VALID,0,VALID,19.8393,VALID,145,VALID,0,
2011-04-15, 01:16:04,VALID,916.101,VALID,0,VALID,97.3891,VALID,0,VALID,19.8573,VALID,145,VALID,0,
2011-04-15, 01:17:04,VALID,916.079,VALID,0,VALID,97.3739,VALID,0,VALID,19.8978,VALID,145,VALID,0,
2011-04-15, 01:18:04,VALID,916.068,VALID,0,VALID,97.3663,VALID,0,VALID,19.9173,VALID,145,VALID,0,
2011-04-15, 01:19:04,VALID,916.071,VALID,0,VALID,97.3663,VALID,0,VALID,19.9353,VALID,145,VALID,0,
2011-04-15, 01:20:04,VALID,916.014,VALID,0,VALID,97.3663,VALID,0,VALID,19.9758,VALID,145,VALID,0,
2011-04-15, 01:21:04,VALID,915.989,VALID,0,VALID,97.3815,VALID,0,VALID,19.9938,VALID,145,VALID,0,
2011-04-15, 01:22:04,VALID,915.922,VALID,0,VALID,97.3586,VALID,0,VALID,20.0148,VALID,145,VALID,0,
2011-04-15, 01:23:04,VALID,915.894,VALID,0,VALID,97.3663,VALID,0,VALID,20.0343,VALID,145,VALID,0,
2011-04-15, 01:24:04,VALID,915.851,VALID,0,VALID,97.3663,VALID,0,VALID,20.0343,VALID,145,VALID,0,
2011-04-15, 01:25:04,VALID,915.805,VALID,0,VALID,97.3663,VALID,0,VALID,20.0343,VALID,145,VALID,0,
2011-04-15, 01:26:04,VALID,915.792,VALID,0,VALID,97.3663,VALID,0,VALID,19.9743,VALID,145,VALID,0,
2011-04-15, 01:27:04,VALID,915.748,VALID,0,VALID,97.3739,VALID,0,VALID,19.9368,VALID,145,VALID,0.126172,
2011-04-15, 01:28:04,VALID,915.705,VALID,0,VALID,97.3586,VALID,0,VALID,19.8963,VALID,145,VALID,0.566016,
2011-04-15, 01:29:04,VALID,915.689,VALID,0,VALID,97.3358,VALID,0,VALID,19.8978,VALID,145,VALID,0.532031,
2011-04-15, 01:30:04,VALID,915.654,VALID,0,VALID,97.3434,VALID,0,VALID,19.8978,VALID,145,VALID,0.746484,
2011-04-15, 01:31:04,VALID,915.601,VALID,0,VALID,97.3663,VALID,0,VALID,19.8768,VALID,145,VALID,0.888281,
2011-04-15, 01:32:04,VALID,915.589,VALID,0,VALID,97.3586,VALID,0,VALID,19.8978,VALID,145,VALID,0.830078,
2011-04-15, 01:33:04,VALID,915.581,VALID,0,VALID,97.3663,VALID,0,VALID,19.9173,VALID,145,VALID,0.833984,
2011-04-15, 01:34:04,VALID,915.534,VALID,0,VALID,97.3586,VALID,0,VALID,19.9173,VALID,145,VALID,1.06836,
2011-04-15, 01:35:04,VALID,915.536,VALID,0,VALID,97.3586,VALID,0,VALID,19.9173,VALID,145,VALID,1.12344,
2011-04-15, 01:36:04,VALID,915.561,VALID,0,VALID,97.351,VALID,0,VALID,19.9173,VALID,145,VALID,1.21289,
2011-04-15, 01:37:04,VALID,915.574,VALID,0,VALID,97.3586,VALID,0,VALID,19.9173,VALID,145,VALID,0.9875,
2011-04-15, 01:38:04,VALID,915.576,VALID,0,VALID,97.351,VALID,0,VALID,19.8978,VALID,145,VALID,0.870703,
2011-04-15, 01:39:04,VALID,915.584,VALID,0,VALID,97.3434,VALID,0,VALID,19.8783,VALID,145,VALID,0.968359,
2011-04-15, 01:40:04,VALID,915.642,VALID,0,VALID,97.3434,VALID,0,VALID,19.8588,VALID,145,VALID,0.878906,
2011-04-15, 01:41:04,VALID,915.642,VALID,0,VALID,97.3434,VALID,0,VALID,19.8588,VALID,145,VALID,0.651172,
2011-04-15, 01:42:04,VALID,915.693,VALID,0,VALID,97.3815,VALID,0,VALID,19.8588,VALID,145,VALID,0.902734,
2011-04-15, 01:43:04,VALID,915.694,VALID,0,VALID,97.3434,VALID,0,VALID,19.8393,VALID,145,VALID,1.03867,
2011-04-15, 01:44:04,VALID,915.685,VALID,0,VALID,97.3663,VALID,0,VALID,19.8393,VALID,145,VALID,0.675391,
2011-04-15, 01:45:04,VALID,915.666,VALID,0,VALID,97.3586,VALID,0,VALID,19.8183,VALID,145,VALID,0.628516,
2011-04-15, 01:46:04,VALID,915.676,VALID,0,VALID,97.3663,VALID,0,VALID,19.8393,VALID,145,VALID,0.611328,
2011-04-15, 01:47:04,VALID,915.617,VALID,0,VALID,97.3663,VALID,0,VALID,19.8393,VALID,145,VALID,0.437109,
2011-04-15, 01:48:04,VALID,915.587,VALID,0,VALID,97.3739,VALID,0,VALID,19.8588,VALID,145,VALID,0.246094,
2011-04-15, 01:49:04,VALID,915.537,VALID,0,VALID,97.3739,VALID,0,VALID,19.8393,VALID,145,VALID,0.237891,
2011-04-15, 01:50:04,VALID,915.487,VALID,0,VALID,97.3663,VALID,0,VALID,19.8588,VALID,145,VALID,0.580859,
2011-04-15, 01:51:04,VALID,915.465,VALID,0,VALID,97.3739,VALID,0,VALID,19.8588,VALID,145,VALID,0.466797,
2011-04-15, 01:52:04,VALID,915.45,VALID,0,VALID,97.3663,VALID,0,VALID,19.8393,VALID,145,VALID,0.260547,
2011-04-15, 01:53:04,VALID,915.392,VALID,0,VALID,97.3663,VALID,0,VALID,19.8393,VALID,145,VALID,0.153906,
2011-04-15, 01:54:04,VALID,915.436,VALID,0,VALID,97.3815,VALID,0,VALID,19.8393,VALID,145,VALID,0.200781,
2011-04-15, 01:55:04,VALID,915.445,VALID,0,VALID,97.3815,VALID,0,VALID,19.8393,VALID,145,VALID,0,
2011-04-15, 01:56:04,VALID,915.442,VALID,0,VALID,97.3663,VALID,0,VALID,19.8378,VALID,145,VALID,0,
2011-04-15, 01:57:04,VALID,915.437,VALID,0,VALID,97.3739,VALID,0,VALID,19.8783,VALID,145,VALID,0,
2011-04-15, 01:58:04,VALID,915.434,VALID,0,VALID,97.3739,VALID,0,VALID,19.8378,VALID,145,VALID,0.250781,
2011-04-15, 01:59:04,VALID,915.434,VALID,0,VALID,97.3815,VALID,0,VALID,19.8588,VALID,145,VALID,0.352734,
2011-04-15, 02:00:04,VALID,915.463,VALID,0,VALID,97.3739,VALID,0,VALID,19.8588,VALID,145,VALID,0.367578,
2011-04-15, 02:01:04,VALID,915.465,VALID,0,VALID,97.3586,VALID,0,VALID,19.8378,VALID,145,VALID,0.267578,
2011-04-15, 02:02:04,VALID,915.449,VALID,0,VALID,97.3739,VALID,0,VALID,19.8378,VALID,145,VALID,0.138672,
2011-04-15, 02:03:04,VALID,915.464,VALID,0,VALID,97.3968,VALID,0,VALID,19.8588,VALID,145,VALID,0.3125,
2011-04-15, 02:04:04,VALID,915.467,VALID,0,VALID,97.3586,VALID,0,VALID,19.8588,VALID,145,VALID,0.225391,
2011-04-15, 02:05:04,VALID,915.447,VALID,0,VALID,97.3586,VALID,0,VALID,19.7793,VALID,145,VALID,0.404297,
2011-04-15, 02:06:04,VALID,915.448,VALID,0,VALID,97.3586,VALID,0,VALID,19.7808,VALID,145,VALID,0.534766,
2011-04-15, 02:07:04,VALID,915.43,VALID,0,VALID,97.3434,VALID,0,VALID,19.7613,VALID,145,VALID,0.603125,
2011-04-15, 02:08:04,VALID,915.416,VALID,0,VALID,97.3739,VALID,0,VALID,19.7223,VALID,145,VALID,0.554297,
2011-04-15, 02:09:04,VALID,915.409,VALID,0,VALID,97.351,VALID,0,VALID,19.7028,VALID,145,VALID,0.508984,
2011-04-15, 02:10:04,VALID,915.445,VALID,0,VALID,97.351,VALID,0,VALID,19.7028,VALID,145,VALID,0.495703,
2011-04-15, 02:11:04,VALID,915.472,VALID,0,VALID,97.3815,VALID,0,VALID,19.7613,VALID,145,VALID,0.298438,
2011-04-15, 02:12:04,VALID,915.477,VALID,0,VALID,97.3739,VALID,0,VALID,19.8393,VALID,145,VALID,0.406641,
2011-04-15, 02:13:04,VALID,915.474,VALID,0,VALID,97.3663,VALID,0,VALID,19.8783,VALID,145,VALID,0.217969,
2011-04-15, 02:14:04,VALID,915.497,VALID,0,VALID,97.3815,VALID,0,VALID,19.9368,VALID,145,VALID,0.250781,
2011-04-15, 02:15:04,VALID,915.515,VALID,0,VALID,97.3739,VALID,0,VALID,19.9173,VALID,145,VALID,0.433203,
2011-04-15, 02:16:04,VALID,915.517,VALID,0,VALID,97.3739,VALID,0,VALID,19.9173,VALID,145,VALID,0.434766,
2011-04-15, 02:17:04,VALID,915.506,VALID,0,VALID,97.3663,VALID,0,VALID,19.9368,VALID,145,VALID,0.779688,
2011-04-15, 02:18:04,VALID,915.501,VALID,0,VALID,97.3663,VALID,0,VALID,19.8978,VALID,145,VALID,0.647266,
2011-04-15, 02:19:04,VALID,915.516,VALID,0,VALID,97.3663,VALID,0,VALID,19.8978,VALID,145,VALID,0.388281,
2011-04-15, 02:20:04,VALID,915.522,VALID,0,VALID,97.3891,VALID,0,VALID,19.8963,VALID,145,VALID,0.220703,
2011-04-15, 02:21:04,VALID,915.532,VALID,0,VALID,97.3739,VALID,0,VALID,19.9158,VALID,145,VALID,0.0644531,
2011-04-15, 02:22:04,VALID,915.524,VALID,0,VALID,97.3739,VALID,0,VALID,19.9368,VALID,145,VALID,0.311328,
2011-04-15, 02:23:04,VALID,915.538,VALID,0,VALID,97.3739,VALID,0,VALID,19.9353,VALID,145,VALID,0.53125,
2011-04-15, 02:24:04,VALID,915.518,VALID,0,VALID,97.3586,VALID,0,VALID,19.9758,VALID,145,VALID,0.482031,
2011-04-15, 02:25:04,VALID,915.503,VALID,0,VALID,97.3739,VALID,0,VALID,19.9743,VALID,145,VALID,0.295312,
2011-04-15, 02:26:04,VALID,915.457,VALID,0,VALID,97.3891,VALID,0,VALID,20.0133,VALID,145,VALID,0.155469,
2011-04-15, 02:27:04,VALID,915.488,VALID,0,VALID,97.3739,VALID,0,VALID,20.0733,VALID,145,VALID,0.451562,
2011-04-15, 02:28:04,VALID,915.457,VALID,0,VALID,97.3739,VALID,0,VALID,20.1123,VALID,145,VALID,0.732422,
2011-04-15, 02:29:04,VALID,915.479,VALID,0,VALID,97.3663,VALID,0,VALID,20.0928,VALID,145,VALID,0.191406,
2011-04-15, 02:30:04,VALID,915.456,VALID,0,VALID,97.3663,VALID,0,VALID,20.0913,VALID,145,VALID,0.0128906,
2011-04-15, 02:31:04,VALID,915.444,VALID,0,VALID,97.351,VALID,0,VALID,20.1318,VALID,145,VALID,0,
2011-04-15, 02:32:04,VALID,915.439,VALID,0,VALID,97.3739,VALID,0,VALID,20.1318,VALID,145,VALID,0.000390625,
2011-04-15, 02:33:04,VALID,915.438,VALID,0,VALID,97.3663,VALID,0,VALID,20.1318,VALID,145,VALID,0.594922,
2011-04-15, 02:34:04,VALID,915.429,VALID,0,VALID,97.351,VALID,0,VALID,20.1123,VALID,145,VALID,1.10664,
2011-04-15, 02:35:04,VALID,915.462,VALID,0,VALID,97.3358,VALID,0,VALID,20.0913,VALID,145,VALID,0.682422,
2011-04-15, 02:36:04,VALID,915.44,VALID,0,VALID,97.3586,VALID,0.107441,VALID,20.0913,VALID,145,VALID,0.598047,
2011-04-15, 02:37:04,VALID,915.438,VALID,0,VALID,97.351,VALID,0,VALID,20.1513,VALID,145,VALID,0.179297,
2011-04-15, 02:38:04,VALID,915.425,VALID,0,VALID,97.3434,VALID,0,VALID,20.1513,VALID,145,VALID,0.275,
2011-04-15, 02:39:04,VALID,915.408,VALID,0,VALID,97.351,VALID,0,VALID,20.1498,VALID,145,VALID,0.903516,
2011-04-15, 02:40:04,VALID,915.336,VALID,0,VALID,97.3281,VALID,0,VALID,20.1708,VALID,117,VALID,1.00156,
2011-04-15, 02:41:04,VALID,915.306,VALID,0,VALID,97.3358,VALID,0,VALID,20.1708,VALID,41,VALID,1.27461,
2011-04-15, 02:42:04,VALID,915.282,VALID,0,VALID,97.3434,VALID,0,VALID,20.1693,VALID,41,VALID,0.772656,
2011-04-15, 02:43:04,VALID,915.279,VALID,0,VALID,97.3129,VALID,0,VALID,20.1693,VALID,40,VALID,0.866797,
2011-04-15, 02:44:04,VALID,915.266,VALID,0,VALID,97.3281,VALID,0,VALID,20.1903,VALID,41,VALID,1.12773,
2011-04-15, 02:45:04,VALID,915.256,VALID,0,VALID,97.3205,VALID,0,VALID,20.2083,VALID,24,VALID,0.962109,
2011-04-15, 02:46:04,VALID,915.228,VALID,0,VALID,97.3205,VALID,0,VALID,20.2293,VALID,24,VALID,1.35234,
2011-04-15, 02:47:04,VALID,915.218,VALID,0,VALID,97.3129,VALID,0,VALID,20.2293,VALID,24,VALID,0.796094,
2011-04-15, 02:48:04,VALID,915.227,VALID,0,VALID,97.3129,VALID,0,VALID,20.2473,VALID,23,VALID,0.457422,
2011-04-15, 02:49:04,VALID,915.215,VALID,0,VALID,97.3281,VALID,0,VALID,20.3074,VALID,23,VALID,0.233203,
2011-04-15, 02:50:04,VALID,915.218,VALID,0,VALID,97.3281,VALID,0,VALID,20.3074,VALID,23,VALID,0.288672,
2011-04-15, 02:51:04,VALID,915.225,VALID,0,VALID,97.29,VALID,0,VALID,20.3058,VALID,23,VALID,0.671094,
2011-04-15, 02:52:04,VALID,915.237,VALID,0,VALID,97.3053,VALID,0,VALID,20.3253,VALID,24,VALID,0.378516,
2011-04-15, 02:53:04,VALID,915.217,VALID,0,VALID,97.29,VALID,0,VALID,20.3253,VALID,24,VALID,0.440625,
2011-04-15, 02:54:04,VALID,915.228,VALID,0,VALID,97.3129,VALID,0,VALID,20.3253,VALID,24,VALID,0.313281,
2011-04-15, 02:55:04,VALID,915.212,VALID,0,VALID,97.3129,VALID,0,VALID,20.3253,VALID,24,VALID,0.644531,
2011-04-15, 02:56:04,VALID,915.23,VALID,0,VALID,97.2824,VALID,0,VALID,20.3448,VALID,24,VALID,0.00117188,
2011-04-15, 02:57:04,VALID,915.211,VALID,0,VALID,97.2977,VALID,0,VALID,20.3659,VALID,24,VALID,0.706641,
2011-04-15, 02:58:04,VALID,915.2,VALID,0,VALID,97.2672,VALID,0,VALID,20.3464,VALID,24,VALID,0.704297,
2011-04-15, 02:59:04,VALID,915.181,VALID,0,VALID,97.2824,VALID,0,VALID,20.3253,VALID,24,VALID,0.619141,
2011-04-15, 03:00:04,VALID,915.119,VALID,0,VALID,97.2824,VALID,0,VALID,20.3643,VALID,24,VALID,0.289453,
2011-04-15, 03:01:04,VALID,915.053,VALID,0,VALID,97.2824,VALID,0,VALID,20.3854,VALID,24,VALID,0.740234,
2011-04-15, 03:02:04,VALID,915.01,VALID,0,VALID,97.2672,VALID,0,VALID,20.3448,VALID,24,VALID,1.18398,
2011-04-15, 03:03:04,VALID,914.966,VALID,0,VALID,97.2748,VALID,0,VALID,20.3854,VALID,24,VALID,1.22227,
2011-04-15, 03:04:04,VALID,914.935,VALID,0,VALID,97.2824,VALID,0,VALID,20.3643,VALID,24,VALID,1.42852,
2011-04-15, 03:05:04,VALID,914.891,VALID,0,VALID,97.2595,VALID,0,VALID,20.3464,VALID,24,VALID,1.21445,
2011-04-15, 03:06:04,VALID,914.856,VALID,0,VALID,97.2595,VALID,0,VALID,20.3464,VALID,24,VALID,1.08359,
2011-04-15, 03:07:04,VALID,914.861,VALID,0,VALID,97.2748,VALID,0,VALID,20.3058,VALID,24,VALID,1.09023,
2011-04-15, 03:08:04,VALID,914.837,VALID,0,VALID,97.2443,VALID,0,VALID,20.3269,VALID,24,VALID,0.994531,
2011-04-15, 03:09:04,VALID,914.803,VALID,0,VALID,97.2519,VALID,0,VALID,20.3253,VALID,1,VALID,1.44961,
2011-04-15, 03:10:04,VALID,914.762,VALID,0,VALID,97.2748,VALID,0,VALID,20.3464,VALID,19,VALID,1.3707,
2011-04-15, 03:11:04,VALID,914.772,VALID,0,VALID,97.2748,VALID,0,VALID,20.3659,VALID,42,VALID,1.34844,
2011-04-15, 03:12:04,VALID,914.735,VALID,0,VALID,97.2672,VALID,0,VALID,20.3448,VALID,43,VALID,0.635547,
2011-04-15, 03:13:04,VALID,914.676,VALID,0,VALID,97.2595,VALID,0,VALID,20.3253,VALID,25,VALID,1.16133,
2011-04-15, 03:14:04,VALID,914.64,VALID,0,VALID,97.2595,VALID,0,VALID,20.3464,VALID,9,VALID,1.00195,
2011-04-15, 03:15:04,VALID,914.615,VALID,0,VALID,97.2595,VALID,0,VALID,20.3269,VALID,10,VALID,1.18867,
2011-04-15, 03:16:04,VALID,914.594,VALID,0,VALID,97.2595,VALID,0,VALID,20.3269,VALID,43,VALID,1.23984,
2011-04-15, 03:17:04,VALID,914.624,VALID,0,VALID,97.2519,VALID,0,VALID,20.3269,VALID,43,VALID,0.853906,
2011-04-15, 03:18:04,VALID,914.625,VALID,0,VALID,97.2443,VALID,0,VALID,20.3074,VALID,43,VALID,0.786328,
2011-04-15, 03:19:04,VALID,914.598,VALID,0,VALID,97.2367,VALID,0,VALID,20.2473,VALID,43,VALID,0.691797,
2011-04-15, 03:20:04,VALID,914.612,VALID,0,VALID,97.2595,VALID,0,VALID,20.2684,VALID,43,VALID,1.25508,
2011-04-15, 03:21:04,VALID,914.626,VALID,0,VALID,97.2214,VALID,0,VALID,20.2278,VALID,43,VALID,0.856641,
2011-04-15, 03:22:04,VALID,914.627,VALID,0,VALID,97.2367,VALID,0,VALID,20.2489,VALID,43,VALID,1.11797,
2011-04-15, 03:23:04,VALID,914.652,VALID,0,VALID,97.2367,VALID,0,VALID,20.2083,VALID,43,VALID,0.679297,
2011-04-15, 03:24:04,VALID,914.684,VALID,0,VALID,97.2519,VALID,0,VALID,20.2083,VALID,43,VALID,0.36875,
2011-04-15, 03:25:04,VALID,914.684,VALID,0,VALID,97.2443,VALID,0,VALID,20.2098,VALID,43,VALID,0.330859,
2011-04-15, 03:26:04,VALID,914.693,VALID,0,VALID,97.2519,VALID,0,VALID,20.1888,VALID,43,VALID,0.378516,
2011-04-15, 03:27:04,VALID,914.671,VALID,0,VALID,97.2595,VALID,0,VALID,20.1903,VALID,43,VALID,0.595703,
2011-04-15, 03:28:04,VALID,914.631,VALID,0,VALID,97.2443,VALID,0,VALID,20.1693,VALID,43,VALID,0.996484,
2011-04-15, 03:29:04,VALID,914.617,VALID,0,VALID,97.2595,VALID,0,VALID,20.0718,VALID,43,VALID,1.17539,
2011-04-15, 03:30:04,VALID,914.573,VALID,0,VALID,97.2443,VALID,0,VALID,19.9743,VALID,43,VALID,1.31875,
2011-04-15, 03:31:04,VALID,914.573,VALID,0,VALID,97.2519,VALID,0,VALID,19.8963,VALID,44,VALID,0.742969,
2011-04-15, 03:32:04,VALID,914.577,VALID,0,VALID,97.2367,VALID,0,VALID,19.7988,VALID,176,VALID,0.929297,
2011-04-15, 03:33:04,VALID,914.606,VALID,0,VALID,97.2595,VALID,0,VALID,19.7403,VALID,176,VALID,0.446094,
2011-04-15, 03:34:04,VALID,914.609,VALID,0,VALID,97.2367,VALID,0,VALID,19.7013,VALID,176,VALID,0.393359,
2011-04-15, 03:35:04,VALID,914.655,VALID,0,VALID,97.2672,VALID,0,VALID,19.6428,VALID,176,VALID,0.638672,
2011-04-15, 03:36:04,VALID,914.64,VALID,0,VALID,97.2672,VALID,0,VALID,19.6053,VALID,176,VALID,0.810547,
2011-04-15, 03:37:04,VALID,914.651,VALID,0,VALID,97.2672,VALID,0,VALID,19.5453,VALID,175,VALID,0.657031,
2011-04-15, 03:38:04,VALID,914.637,VALID,0,VALID,97.29,VALID,0,VALID,19.5273,VALID,151,VALID,0.992188,
2011-04-15, 03:39:04,VALID,914.641,VALID,0,VALID,97.2977,VALID,0,VALID,19.4868,VALID,159,VALID,1.06484,
2011-04-15, 03:40:04,VALID,914.645,VALID,0,VALID,97.3129,VALID,0,VALID,19.5063,VALID,159,VALID,0.927344,
2011-04-15, 03:41:04,VALID,914.635,VALID,0,VALID,97.3129,VALID,0,VALID,19.5063,VALID,159,VALID,0.665234,
2011-04-15, 03:42:04,VALID,914.644,VALID,0,VALID,97.3281,VALID,0,VALID,19.5063,VALID,159,VALID,0.646875,
2011-04-15, 03:43:04,VALID,914.594,VALID,0,VALID,97.3358,VALID,0,VALID,19.5258,VALID,159,VALID,0.68125,
2011-04-15, 03:44:04,VALID,914.565,VALID,0,VALID,97.351,VALID,0,VALID,19.5663,VALID,159,VALID,0.75,
2011-04-15, 03:45:04,VALID,914.528,VALID,0,VALID,97.3663,VALID,0,VALID,19.5453,VALID,159,VALID,0.883984,
2011-04-15, 03:46:04,VALID,914.533,VALID,0,VALID,97.3663,VALID,0,VALID,19.6038,VALID,159,VALID,0.595703,
2011-04-15, 03:47:04,VALID,914.542,VALID,0,VALID,97.3815,VALID,0,VALID,19.6038,VALID,159,VALID,0.921094,